| time (UTC) | temp F | wind direction | speed knots | gust knots | rain 1hr in | rain 24hr in | rain mn in | humidity % | barometer mb |
| 20260507141707 | 64 | 320 | 5.2 | 0.0 | 0.00 | 0.00 | 0.00 | 83 | 1011.0 |
| 20260507141206 | 64 | 320 | 5.2 | 0.0 | 0.00 | 0.00 | 0.00 | 83 | 1011.0 |
| 20260507140705 | 64 | 288 | 2.6 | 7.0 | 0.00 | 0.00 | 0.00 | 82 | 1011.0 |
| 20260507140204 | 64 | 174 | 0.9 | 6.1 | 0.00 | 0.00 | 0.00 | 81 | 1010.0 |
| 20260507135703 | 64 | 174 | 0.9 | 6.1 | 0.00 | 0.00 | 0.00 | 81 | 1010.0 |
| 20260507135202 | 64 | 250 | 0.9 | 4.3 | 0.00 | 0.00 | 0.00 | 82 | 1010.0 |
| 20260507134701 | 64 | 250 | 0.9 | 4.3 | 0.00 | 0.00 | 0.00 | 82 | 1010.0 |
| 20260507134200 | 64 | 300 | 4.3 | 0.0 | 0.00 | 0.00 | 0.00 | 84 | 1010.0 |
| 20260507133659 | 64 | 300 | 4.3 | 0.0 | 0.00 | 0.00 | 0.00 | 83 | 1010.0 |
| 20260507133159 | 64 | 300 | 4.3 | 0.0 | 0.00 | 0.00 | 0.00 | 83 | 1010.0 |
| 20260507132658 | 65 | 115 | 7.0 | 11.3 | 0.00 | 0.00 | 0.00 | 82 | 1011.0 |
| 20260507132157 | 65 | 115 | 7.0 | 11.3 | 0.00 | 0.00 | 0.00 | 82 | 1011.0 |
| 20260507131656 | 66 | 115 | 7.0 | 11.3 | 0.00 | 0.00 | 0.00 | 80 | 1011.0 |
| 20260507131155 | 66 | 115 | 7.0 | 11.3 | 0.00 | 0.00 | 0.00 | 80 | 1011.0 |
| 20260507130654 | 66 | 115 | 7.0 | 11.3 | 0.00 | 0.00 | 0.00 | 79 | 1011.0 |
| 20260507130153 | 66 | 115 | 7.0 | 11.3 | 0.00 | 0.00 | 0.00 | 79 | 1011.0 |
| 20260507125652 | 66 | 115 | 7.0 | 11.3 | 0.00 | 0.00 | 0.00 | 74 | 1011.0 |
| 20260507125151 | 66 | 115 | 7.0 | 11.3 | 0.00 | 0.00 | 0.00 | 74 | 1011.0 |
| 20260507124651 | 67 | 115 | 7.0 | 11.3 | 0.00 | 0.00 | 0.00 | 74 | 1011.0 |
| 20260507124150 | 67 | 115 | 7.0 | 11.3 | 0.00 | 0.00 | 0.00 | 74 | 1011.0 |
| 20260507123649 | 67 | 115 | 7.0 | 11.3 | 0.00 | 0.00 | 0.00 | 73 | 1011.0 |
| 20260507123148 | 67 | 115 | 7.0 | 11.3 | 0.00 | 0.00 | 0.00 | 73 | 1011.0 |
| 20260507122647 | 67 | 115 | 7.0 | 11.3 | 0.00 | 0.00 | 0.00 | 73 | 1011.0 |
| 20260507122146 | 67 | 115 | 7.0 | 11.3 | 0.00 | 0.00 | 0.00 | 73 | 1011.0 |
| 20260507121645 | 67 | 115 | 7.0 | 11.3 | 0.00 | 0.00 | 0.00 | 73 | 1011.0 |
| 20260507121144 | 67 | 115 | 7.0 | 11.3 | 0.00 | 0.00 | 0.00 | 72 | 1011.0 |
| 20260507120644 | 67 | 115 | 7.0 | 11.3 | 0.00 | 0.00 | 0.00 | 73 | 1011.0 |
| 20260507120143 | 67 | 115 | 7.0 | 11.3 | 0.00 | 0.00 | 0.00 | 73 | 1011.0 |
| 20260507115642 | 67 | 115 | 7.0 | 11.3 | 0.00 | 0.00 | 0.00 | 73 | 1011.0 |
| 20260507115141 | 67 | 115 | 7.0 | 11.3 | 0.00 | 0.00 | 0.00 | 73 | 1011.0 |
| 20260507114640 | 67 | 115 | 7.0 | 11.3 | 0.00 | 0.00 | 0.00 | 73 | 1011.0 |
| 20260507114139 | 66 | 115 | 7.0 | 11.3 | 0.00 | 0.00 | 0.00 | 74 | 1011.0 |
| 20260507113638 | 66 | 115 | 7.0 | 11.3 | 0.00 | 0.00 | 0.00 | 74 | 1011.0 |
| 20260507113137 | 66 | 115 | 7.0 | 11.3 | 0.00 | 0.00 | 0.00 | 74 | 1011.0 |
| 20260507112637 | 66 | 115 | 7.0 | 11.3 | 0.00 | 0.00 | 0.00 | 74 | 1011.0 |
| 20260507112135 | 66 | 115 | 7.0 | 11.3 | 0.00 | 0.00 | 0.00 | 74 | 1011.0 |
| 20260507111635 | 66 | 111 | 6.1 | 9.6 | 0.00 | 0.00 | 0.00 | 75 | 1012.0 |
| 20260507111134 | 66 | 111 | 6.1 | 9.6 | 0.00 | 0.00 | 0.00 | 75 | 1012.0 |
| 20260507110633 | 65 | 126 | 4.3 | 9.6 | 0.00 | 0.00 | 0.00 | 76 | 1011.0 |
| 20260507110132 | 65 | 126 | 4.3 | 9.6 | 0.00 | 0.00 | 0.00 | 76 | 1011.0 |
| 20260507105631 | 65 | 68 | 7.0 | 13.0 | 0.00 | 0.00 | 0.00 | 74 | 1011.0 |
| 20260507105130 | 65 | 68 | 7.0 | 13.0 | 0.00 | 0.00 | 0.00 | 74 | 1011.0 |
| 20260507104629 | 66 | 68 | 7.0 | 13.0 | 0.00 | 0.00 | 0.00 | 73 | 1011.0 |
| 20260507104128 | 66 | 68 | 7.0 | 13.0 | 0.00 | 0.00 | 0.00 | 73 | 1011.0 |
| 20260507103627 | 66 | 68 | 7.0 | 13.0 | 0.00 | 0.00 | 0.00 | 73 | 1011.0 |
| 20260507103127 | 66 | 68 | 7.0 | 13.0 | 0.00 | 0.00 | 0.00 | 73 | 1011.0 |
| 20260507102626 | 66 | 68 | 7.0 | 13.0 | 0.00 | 0.00 | 0.00 | 74 | 1011.0 |
| 20260507102125 | 66 | 68 | 7.0 | 13.0 | 0.00 | 0.00 | 0.00 | 74 | 1011.0 |
| 20260507101624 | 66 | 68 | 7.0 | 13.0 | 0.00 | 0.00 | 0.00 | 73 | 1011.0 |
| 20260507101123 | 66 | 68 | 7.0 | 13.0 | 0.00 | 0.00 | 0.00 | 73 | 1011.0 |
| 20260507100622 | 66 | 68 | 7.0 | 13.0 | 0.00 | 0.00 | 0.00 | 73 | 1011.0 |
| 20260507100121 | 66 | 68 | 7.0 | 13.0 | 0.00 | 0.00 | 0.00 | 73 | 1011.0 |
| 20260507095620 | 66 | 105 | 6.1 | 11.3 | 0.00 | 0.00 | 0.00 | 74 | 1011.0 |
| 20260507095119 | 66 | 105 | 6.1 | 11.3 | 0.00 | 0.00 | 0.00 | 74 | 1011.0 |
| 20260507094619 | 65 | 105 | 6.1 | 11.3 | 0.00 | 0.00 | 0.00 | 75 | 1011.0 |
| 20260507094118 | 65 | 105 | 6.1 | 11.3 | 0.00 | 0.00 | 0.00 | 75 | 1011.0 |
| 20260507093617 | 65 | 105 | 6.1 | 11.3 | 0.00 | 0.00 | 0.00 | 76 | 1011.0 |
| 20260507093116 | 65 | 105 | 6.1 | 11.3 | 0.00 | 0.00 | 0.00 | 76 | 1011.0 |
| 20260507092615 | 65 | 105 | 6.1 | 11.3 | 0.00 | 0.00 | 0.00 | 77 | 1012.0 |
| 20260507092114 | 65 | 105 | 6.1 | 11.3 | 0.00 | 0.00 | 0.00 | 77 | 1012.0 |
| 20260507091613 | 64 | 105 | 6.1 | 11.3 | 0.00 | 0.00 | 0.00 | 78 | 1012.0 |
| 20260507091112 | 64 | 105 | 6.1 | 11.3 | 0.00 | 0.00 | 0.00 | 78 | 1012.0 |
| 20260507090612 | 64 | 105 | 6.1 | 11.3 | 0.00 | 0.00 | 0.00 | 78 | 1012.0 |
| 20260507090111 | 64 | 3 | 2.6 | 4.3 | 0.00 | 0.00 | 0.00 | 79 | 1012.0 |
| 20260507085610 | 64 | 3 | 2.6 | 4.3 | 0.00 | 0.00 | 0.00 | 79 | 1012.0 |
| 20260507085109 | 64 | 3 | 2.6 | 4.3 | 0.00 | 0.00 | 0.00 | 80 | 1012.0 |
| 20260507084608 | 64 | 3 | 2.6 | 4.3 | 0.00 | 0.00 | 0.00 | 80 | 1012.0 |
| 20260507084107 | 64 | 3 | 2.6 | 4.3 | 0.00 | 0.00 | 0.00 | 80 | 1012.0 |
| 20260507083606 | 64 | 3 | 2.6 | 4.3 | 0.00 | 0.00 | 0.00 | 79 | 1012.0 |
| 20260507083105 | 63 | 3 | 2.6 | 4.3 | 0.00 | 0.00 | 0.00 | 78 | 1012.0 |
| 20260507082604 | 63 | 3 | 2.6 | 4.3 | 0.00 | 0.00 | 0.00 | 78 | 1012.0 |
| 20260507082104 | 63 | 3 | 2.6 | 4.3 | 0.00 | 0.00 | 0.00 | 77 | 1012.0 |
| 20260507081603 | 63 | 3 | 2.6 | 4.3 | 0.00 | 0.00 | 0.00 | 77 | 1012.0 |
| 20260507081102 | 63 | 3 | 2.6 | 4.3 | 0.00 | 0.00 | 0.00 | 77 | 1012.0 |
| 20260507080601 | 63 | 3 | 2.6 | 4.3 | 0.00 | 0.00 | 0.00 | 77 | 1012.0 |
| 20260507080100 | 63 | 3 | 2.6 | 4.3 | 0.00 | 0.00 | 0.00 | 76 | 1012.0 |
| 20260507075559 | 63 | 3 | 2.6 | 4.3 | 0.00 | 0.00 | 0.00 | 76 | 1012.0 |
| 20260507075058 | 63 | 3 | 2.6 | 4.3 | 0.00 | 0.00 | 0.00 | 76 | 1012.0 |
| 20260507074557 | 63 | 3 | 2.6 | 4.3 | 0.00 | 0.00 | 0.00 | 76 | 1012.0 |
| 20260507074056 | 63 | 3 | 2.6 | 4.3 | 0.00 | 0.00 | 0.00 | 76 | 1012.0 |
| 20260507073556 | 63 | 3 | 2.6 | 4.3 | 0.00 | 0.00 | 0.00 | 76 | 1011.0 |
| 20260507073055 | 63 | 3 | 2.6 | 4.3 | 0.00 | 0.00 | 0.00 | 76 | 1011.0 |
| 20260507072554 | 63 | 3 | 2.6 | 4.3 | 0.00 | 0.00 | 0.00 | 76 | 1011.0 |
| 20260507072053 | 63 | 3 | 2.6 | 4.3 | 0.00 | 0.00 | 0.00 | 76 | 1011.0 |
| 20260507071552 | 62 | 3 | 2.6 | 4.3 | 0.00 | 0.00 | 0.00 | 78 | 1011.0 |
| 20260507071051 | 62 | 3 | 2.6 | 4.3 | 0.00 | 0.00 | 0.00 | 78 | 1011.0 |
| 20260507070550 | 61 | 3 | 2.6 | 4.3 | 0.00 | 0.00 | 0.00 | 78 | 1011.0 |
| 20260507070049 | 61 | 3 | 2.6 | 4.3 | 0.00 | 0.00 | 0.00 | 78 | 1011.0 |
| 20260507065549 | 61 | 3 | 2.6 | 4.3 | 0.00 | 0.00 | 0.00 | 79 | 1011.0 |
| 20260507065048 | 61 | 3 | 2.6 | 4.3 | 0.00 | 0.00 | 0.00 | 79 | 1011.0 |
| 20260507064547 | 60 | 3 | 2.6 | 4.3 | 0.00 | 0.00 | 0.00 | 79 | 1011.0 |
| 20260507064046 | 60 | 3 | 2.6 | 4.3 | 0.00 | 0.00 | 0.00 | 79 | 1011.0 |
| 20260507063545 | 60 | 3 | 2.6 | 4.3 | 0.00 | 0.00 | 0.00 | 79 | 1011.0 |
| 20260507063044 | 60 | 3 | 2.6 | 4.3 | 0.00 | 0.00 | 0.00 | 79 | 1011.0 |
| 20260507062543 | 60 | 3 | 2.6 | 4.3 | 0.00 | 0.00 | 0.00 | 80 | 1011.0 |
| 20260507062042 | 60 | 3 | 2.6 | 4.3 | 0.00 | 0.00 | 0.00 | 80 | 1011.0 |
| 20260507061542 | 59 | 3 | 2.6 | 4.3 | 0.00 | 0.00 | 0.00 | 82 | 1011.0 |
| 20260507061041 | 59 | 3 | 2.6 | 4.3 | 0.00 | 0.00 | 0.00 | 82 | 1011.0 |
| 20260507060540 | 59 | 3 | 2.6 | 4.3 | 0.00 | 0.00 | 0.00 | 82 | 1011.0 |
| 20260507060039 | 58 | 3 | 2.6 | 4.3 | 0.00 | 0.00 | 0.00 | 82 | 1011.0 |
| 20260507055538 | 58 | 3 | 2.6 | 4.3 | 0.00 | 0.00 | 0.00 | 82 | 1011.0 |
| 20260507055037 | 58 | 3 | 2.6 | 4.3 | 0.00 | 0.00 | 0.00 | 82 | 1011.0 |
| 20260507054536 | 58 | 3 | 2.6 | 4.3 | 0.00 | 0.00 | 0.00 | 82 | 1011.0 |
| 20260507054036 | 58 | 3 | 2.6 | 4.3 | 0.00 | 0.00 | 0.00 | 82 | 1011.0 |
| 20260507053535 | 58 | 3 | 2.6 | 4.3 | 0.00 | 0.00 | 0.00 | 82 | 1011.0 |
| 20260507053034 | 59 | 3 | 2.6 | 4.3 | 0.00 | 0.00 | 0.00 | 81 | 1011.0 |
| 20260507052533 | 59 | 3 | 2.6 | 4.3 | 0.00 | 0.00 | 0.00 | 81 | 1011.0 |
| 20260507052032 | 59 | 3 | 2.6 | 4.3 | 0.00 | 0.00 | 0.00 | 82 | 1011.0 |
| 20260507051531 | 59 | 3 | 2.6 | 4.3 | 0.00 | 0.00 | 0.00 | 82 | 1011.0 |
| 20260507051030 | 59 | 3 | 2.6 | 4.3 | 0.00 | 0.00 | 0.00 | 82 | 1011.0 |
| 20260507050529 | 59 | 3 | 2.6 | 4.3 | 0.00 | 0.00 | 0.00 | 82 | 1011.0 |
| 20260507050029 | 59 | 3 | 2.6 | 4.3 | 0.00 | 0.00 | 0.00 | 82 | 1011.0 |
| 20260507045528 | 59 | 3 | 2.6 | 4.3 | 0.00 | 0.00 | 0.00 | 82 | 1011.0 |
| 20260507045027 | 59 | 3 | 2.6 | 4.3 | 0.00 | 0.00 | 0.00 | 83 | 1011.0 |
| 20260507044526 | 59 | 3 | 2.6 | 4.3 | 0.00 | 0.00 | 0.00 | 83 | 1011.0 |
| 20260507044025 | 59 | 3 | 2.6 | 4.3 | 0.00 | 0.00 | 0.00 | 83 | 1011.0 |
| 20260507043524 | 59 | 3 | 2.6 | 4.3 | 0.00 | 0.00 | 0.00 | 83 | 1011.0 |
| 20260507043023 | 59 | 3 | 2.6 | 4.3 | 0.00 | 0.00 | 0.00 | 83 | 1010.0 |
| 20260507042522 | 59 | 3 | 2.6 | 4.3 | 0.00 | 0.00 | 0.00 | 83 | 1010.0 |
| 20260507042021 | 59 | 3 | 2.6 | 4.3 | 0.00 | 0.00 | 0.00 | 84 | 1010.0 |
| 20260507041521 | 59 | 3 | 2.6 | 4.3 | 0.00 | 0.00 | 0.00 | 84 | 1010.0 |
| 20260507041020 | 59 | 3 | 2.6 | 4.3 | 0.00 | 0.00 | 0.00 | 84 | 1010.0 |
| 20260507040519 | 59 | 3 | 2.6 | 4.3 | 0.00 | 0.00 | 0.00 | 84 | 1010.0 |
| 20260507040018 | 59 | 3 | 2.6 | 4.3 | 0.00 | 0.00 | 0.00 | 84 | 1010.0 |
| 20260507035016 | 59 | 3 | 2.6 | 4.3 | 0.00 | 0.00 | 0.00 | 84 | 1011.0 |
| 20260507034515 | 59 | 3 | 2.6 | 4.3 | 0.00 | 0.00 | 0.00 | 84 | 1011.0 |
| 20260507034014 | 59 | 3 | 2.6 | 4.3 | 0.00 | 0.00 | 0.00 | 84 | 1011.0 |
| 20260507033514 | 59 | 3 | 2.6 | 4.3 | 0.00 | 0.00 | 0.00 | 84 | 1011.0 |
| 20260507033013 | 59 | 3 | 2.6 | 4.3 | 0.00 | 0.00 | 0.00 | 84 | 1011.0 |
| 20260507032512 | 59 | 3 | 2.6 | 4.3 | 0.00 | 0.00 | 0.00 | 84 | 1011.0 |
| 20260507032011 | 60 | 3 | 2.6 | 4.3 | 0.00 | 0.00 | 0.00 | 84 | 1011.0 |
| 20260507031510 | 60 | 3 | 2.6 | 4.3 | 0.00 | 0.00 | 0.00 | 84 | 1011.0 |
| 20260507031009 | 60 | 3 | 2.6 | 4.3 | 0.00 | 0.00 | 0.00 | 84 | 1011.0 |
| 20260507030508 | 60 | 3 | 2.6 | 4.3 | 0.00 | 0.00 | 0.00 | 84 | 1011.0 |
| 20260507030007 | 60 | 3 | 2.6 | 4.3 | 0.00 | 0.00 | 0.00 | 84 | 1011.0 |
| 20260507025506 | 60 | 3 | 2.6 | 4.3 | 0.00 | 0.00 | 0.00 | 84 | 1011.0 |
| 20260507025005 | 60 | 3 | 2.6 | 4.3 | 0.00 | 0.00 | 0.00 | 84 | 1011.0 |
| 20260507024505 | 60 | 3 | 2.6 | 4.3 | 0.00 | 0.00 | 0.00 | 84 | 1011.0 |
| 20260507024004 | 60 | 3 | 2.6 | 4.3 | 0.00 | 0.00 | 0.00 | 84 | 1011.0 |
| 20260507023503 | 60 | 3 | 2.6 | 4.3 | 0.00 | 0.00 | 0.00 | 84 | 1010.0 |
| 20260507023002 | 60 | 3 | 2.6 | 4.3 | 0.00 | 0.00 | 0.00 | 84 | 1010.0 |
| 20260507022501 | 60 | 3 | 2.6 | 4.3 | 0.00 | 0.00 | 0.00 | 84 | 1010.0 |
| 20260507022000 | 60 | 3 | 2.6 | 4.3 | 0.00 | 0.00 | 0.00 | 84 | 1010.0 |
| 20260507021459 | 60 | 3 | 2.6 | 4.3 | 0.00 | 0.00 | 0.00 | 84 | 1010.0 |
| 20260507020958 | 60 | 3 | 2.6 | 4.3 | 0.00 | 0.00 | 0.00 | 84 | 1010.0 |
| 20260507020457 | 60 | 3 | 2.6 | 4.3 | 0.00 | 0.00 | 0.00 | 84 | 1010.0 |
| 20260507015957 | 61 | 3 | 2.6 | 4.3 | 0.00 | 0.00 | 0.00 | 83 | 1010.0 |
| 20260507015456 | 61 | 3 | 2.6 | 4.3 | 0.00 | 0.00 | 0.00 | 83 | 1010.0 |
| 20260507014955 | 61 | 3 | 2.6 | 4.3 | 0.00 | 0.00 | 0.00 | 83 | 1010.0 |
| 20260507014454 | 61 | 3 | 2.6 | 4.3 | 0.00 | 0.00 | 0.00 | 83 | 1010.0 |
| 20260507013953 | 61 | 3 | 2.6 | 4.3 | 0.00 | 0.00 | 0.00 | 83 | 1010.0 |
| 20260507013452 | 61 | 3 | 2.6 | 4.3 | 0.00 | 0.00 | 0.00 | 83 | 1010.0 |
| 20260507012951 | 61 | 3 | 2.6 | 4.3 | 0.00 | 0.00 | 0.00 | 83 | 1011.0 |
| 20260507012450 | 61 | 3 | 2.6 | 4.3 | 0.00 | 0.00 | 0.00 | 83 | 1011.0 |
| 20260507011949 | 61 | 3 | 2.6 | 4.3 | 0.00 | 0.00 | 0.00 | 83 | 1011.0 |
| 20260507011449 | 61 | 3 | 2.6 | 4.3 | 0.00 | 0.00 | 0.00 | 83 | 1011.0 |
| 20260507010948 | 61 | 3 | 2.6 | 4.3 | 0.00 | 0.00 | 0.00 | 83 | 1011.0 |
| 20260507010447 | 61 | 3 | 2.6 | 4.3 | 0.00 | 0.00 | 0.00 | 83 | 1011.0 |
| 20260507005946 | 61 | 3 | 2.6 | 4.3 | 0.00 | 0.00 | 0.00 | 83 | 1011.0 |
| 20260507005445 | 61 | 3 | 2.6 | 4.3 | 0.00 | 0.00 | 0.00 | 83 | 1011.0 |
| 20260507004944 | 61 | 3 | 2.6 | 4.3 | 0.00 | 0.00 | 0.00 | 83 | 1011.0 |
| 20260507004443 | 62 | 3 | 2.6 | 4.3 | 0.00 | 0.00 | 0.00 | 83 | 1011.0 |
| 20260507003942 | 62 | 3 | 2.6 | 4.3 | 0.00 | 0.00 | 0.00 | 83 | 1011.0 |
| 20260507003442 | 62 | 3 | 2.6 | 4.3 | 0.00 | 0.00 | 0.00 | 83 | 1011.0 |
| 20260507002941 | 62 | 3 | 2.6 | 4.3 | 0.00 | 0.00 | 0.00 | 83 | 1011.0 |
| 20260507002440 | 62 | 3 | 2.6 | 4.3 | 0.00 | 0.00 | 0.00 | 83 | 1011.0 |
| 20260507001939 | 62 | 3 | 2.6 | 4.3 | 0.00 | 0.00 | 0.00 | 83 | 1011.0 |
| 20260507001438 | 62 | 3 | 2.6 | 4.3 | 0.00 | 0.00 | 0.00 | 83 | 1011.0 |
| 20260507000937 | 62 | 3 | 2.6 | 4.3 | 0.00 | 0.00 | 0.00 | 83 | 1011.0 |
| 20260507000436 | 62 | 3 | 2.6 | 4.3 | 0.00 | 0.00 | 0.00 | 83 | 1011.0 |
| 20260506235935 | 62 | 3 | 2.6 | 4.3 | 0.00 | 0.00 | 0.00 | 83 | 1011.0 |
| 20260506235434 | 62 | 3 | 2.6 | 4.3 | 0.00 | 0.00 | 0.00 | 83 | 1011.0 |
| 20260506234934 | 62 | 3 | 2.6 | 4.3 | 0.00 | 0.00 | 0.00 | 83 | 1011.0 |
| 20260506234433 | 62 | 3 | 2.6 | 4.3 | 0.00 | 0.00 | 0.00 | 83 | 1011.0 |
| 20260506233932 | 62 | 3 | 2.6 | 4.3 | 0.00 | 0.00 | 0.00 | 83 | 1011.0 |
| 20260506233431 | 62 | 3 | 2.6 | 4.3 | 0.00 | 0.00 | 0.00 | 83 | 1012.0 |
| 20260506232930 | 62 | 3 | 2.6 | 4.3 | 0.00 | 0.00 | 0.00 | 83 | 1012.0 |
| 20260506232429 | 62 | 3 | 2.6 | 4.3 | 0.00 | 0.00 | 0.00 | 83 | 1012.0 |
| 20260506231928 | 62 | 3 | 2.6 | 4.3 | 0.00 | 0.00 | 0.00 | 83 | 1012.0 |
| 20260506231427 | 62 | 23 | 0.9 | 3.5 | 0.00 | 0.00 | 0.00 | 83 | 1012.0 |
| 20260506230926 | 62 | 23 | 0.9 | 3.5 | 0.00 | 0.00 | 0.00 | 83 | 1012.0 |
| 20260506230426 | 62 | 23 | 0.9 | 3.5 | 0.00 | 0.00 | 0.00 | 83 | 1012.0 |
| 20260506225925 | 62 | 19 | 0.9 | 3.5 | 0.00 | 0.00 | 0.00 | 83 | 1012.0 |
| 20260506225424 | 62 | 19 | 0.9 | 3.5 | 0.00 | 0.00 | 0.00 | 83 | 1012.0 |
| 20260506181205 | 67 | 80 | 12.2 | 0.0 | 0.00 | 0.00 | 0.00 | 69 | 1011.0 |
| 20260506180704 | 67 | 80 | 12.2 | 0.0 | 0.00 | 0.00 | 0.00 | 69 | 1011.0 |
| 20260506180203 | 67 | 80 | 12.2 | 0.0 | 0.00 | 0.00 | 0.00 | 68 | 1011.0 |
| 20260506175702 | 67 | 80 | 12.2 | 0.0 | 0.00 | 0.00 | 0.00 | 68 | 1011.0 |
| 20260506175201 | 67 | 80 | 12.2 | 0.0 | 0.00 | 0.00 | 0.00 | 68 | 1011.0 |
| 20260506174700 | 67 | 80 | 12.2 | 0.0 | 0.00 | 0.00 | 0.00 | 68 | 1011.0 |
| 20260506173658 | 67 | 80 | 12.2 | 0.0 | 0.00 | 0.00 | 0.00 | 68 | 1011.0 |
| 20260506173157 | 67 | 80 | 12.2 | 0.0 | 0.00 | 0.00 | 0.00 | 68 | 1011.0 |
| 20260506172656 | 67 | 80 | 12.2 | 0.0 | 0.00 | 0.00 | 0.00 | 68 | 1010.0 |
| 20260506172155 | 68 | 80 | 12.2 | 0.0 | 0.00 | 0.00 | 0.00 | 68 | 1010.0 |
| 20260506171654 | 68 | 80 | 12.2 | 0.0 | 0.00 | 0.00 | 0.00 | 68 | 1010.0 |
| 20260506171153 | 68 | 80 | 12.2 | 0.0 | 0.00 | 0.00 | 0.00 | 69 | 1010.0 |
| 20260506170652 | 68 | 80 | 12.2 | 0.0 | 0.00 | 0.00 | 0.00 | 69 | 1010.0 |
| 20260506170151 | 68 | 80 | 12.2 | 0.0 | 0.00 | 0.00 | 0.00 | 66 | 1010.0 |
| 20260506165650 | 68 | 80 | 12.2 | 0.0 | 0.00 | 0.00 | 0.00 | 66 | 1010.0 |
| 20260506165149 | 68 | 80 | 12.2 | 0.0 | 0.00 | 0.00 | 0.00 | 66 | 1010.0 |
| 20260506164648 | 68 | 80 | 12.2 | 0.0 | 0.00 | 0.00 | 0.00 | 66 | 1010.0 |
| 20260506164147 | 69 | 80 | 12.2 | 0.0 | 0.00 | 0.00 | 0.00 | 67 | 1010.0 |
| 20260506163646 | 69 | 80 | 12.2 | 0.0 | 0.00 | 0.00 | 0.00 | 67 | 1010.0 |
| 20260506163145 | 69 | 80 | 12.2 | 0.0 | 0.00 | 0.00 | 0.00 | 67 | 1010.0 |
| 20260506162644 | 69 | 80 | 12.2 | 0.0 | 0.00 | 0.00 | 0.00 | 67 | 1010.0 |
| 20260506162143 | 69 | 80 | 12.2 | 0.0 | 0.00 | 0.00 | 0.00 | 68 | 1010.0 |
| 20260506161642 | 69 | 80 | 12.2 | 0.0 | 0.00 | 0.00 | 0.00 | 68 | 1010.0 |
| 20260506161141 | 69 | 70 | 11.3 | 0.0 | 0.00 | 0.00 | 0.00 | 70 | 1010.0 |
| 20260506160640 | 69 | 70 | 11.3 | 0.0 | 0.00 | 0.00 | 0.00 | 70 | 1010.0 |
| 20260506160139 | 69 | 70 | 11.3 | 0.0 | 0.00 | 0.00 | 0.00 | 70 | 1010.0 |
| 20260506155638 | 69 | 70 | 11.3 | 0.0 | 0.00 | 0.00 | 0.00 | 70 | 1010.0 |
| 20260506155137 | 69 | 70 | 11.3 | 0.0 | 0.00 | 0.00 | 0.00 | 69 | 1010.0 |
| 20260506154637 | 69 | 70 | 11.3 | 0.0 | 0.00 | 0.00 | 0.00 | 69 | 1010.0 |
| 20260506154135 | 70 | 70 | 11.3 | 0.0 | 0.00 | 0.00 | 0.00 | 68 | 1010.0 |
| 20260506153635 | 70 | 70 | 11.3 | 0.0 | 0.00 | 0.00 | 0.00 | 68 | 1010.0 |
| 20260506153133 | 70 | 70 | 11.3 | 0.0 | 0.00 | 0.00 | 0.00 | 67 | 1010.0 |
| 20260506152132 | 70 | 70 | 11.3 | 0.0 | 0.00 | 0.00 | 0.00 | 67 | 1010.0 |
| 20260506151631 | 70 | 70 | 11.3 | 0.0 | 0.00 | 0.00 | 0.00 | 67 | 1010.0 |
| 20260506151130 | 70 | 70 | 11.3 | 0.0 | 0.00 | 0.00 | 0.00 | 67 | 1010.0 |
| 20260506150629 | 71 | 70 | 11.3 | 0.0 | 0.00 | 0.00 | 0.00 | 67 | 1010.0 |
| 20260506150128 | 71 | 70 | 11.3 | 0.0 | 0.00 | 0.00 | 0.00 | 67 | 1010.0 |
| 20260506145627 | 71 | 70 | 11.3 | 0.0 | 0.00 | 0.00 | 0.00 | 66 | 1010.0 |
| 20260506145126 | 71 | 70 | 11.3 | 0.0 | 0.00 | 0.00 | 0.00 | 66 | 1010.0 |
| 20260506144625 | 70 | 70 | 11.3 | 0.0 | 0.00 | 0.00 | 0.00 | 66 | 1010.0 |
| 20260506144124 | 70 | 70 | 11.3 | 0.0 | 0.00 | 0.00 | 0.00 | 66 | 1010.0 |
| 20260506143623 | 70 | 70 | 11.3 | 0.0 | 0.00 | 0.00 | 0.00 | 64 | 1010.0 |
| 20260506143122 | 71 | 70 | 11.3 | 0.0 | 0.00 | 0.00 | 0.00 | 60 | 1010.0 |
| 20260506142621 | 71 | 70 | 11.3 | 0.0 | 0.00 | 0.00 | 0.00 | 60 | 1010.0 |
| 20260506142120 | 71 | 70 | 11.3 | 0.0 | 0.00 | 0.00 | 0.00 | 60 | 1010.0 |